SCP
-0 -0 -0 -0 -0 -0 -0 -0 -0 -0 -0 -0 -0 -0 0 -0 -0 -0 0 0 0 0 -0 -0 -0 -0 -0 0 -0 0 -0 -0 -0 -0 -0 -0 -0 -0 -0 -0 -0 -0 0
-0 -0 -0 -0 -0 -0 -0 -0 -0 -0 -0 -0 -0 -0 -0 -0 0 -0 0 0 0 0 -0 0 0 -0 -0 -0 0 0 -0 -0 -0 0 0 -0 -0 -0 -0 -0 -0 -0 -0
-0 -0 -0 -0 -0 -0 -0 -0 -0 -0 -0 -0 -0 -0 -0 -0 -0 -0 -0 0 0 -0 -0 -0 0 -0 -0 -0 0 0 0 0 0 0 0 -0 -0 -0 -0 -0 -0 -0 -0
-0 -0 -0 -0 -0 -0 -0 -0 0 -0 -0 -0 0 0 -0 -0 0 -0 -0 0 0 -0 0 -0 -0 -0 -0 -0 -0 0 0 0 0 -0 -0 -0 -0 -0 -0 -0 -0 -0 0
-0 -0 -0 -0 -0 -0 -0 -0 -0 -0 -0 -0 0 0 0 0 -0 -0 -0 -0 0 0 0 0 -0 -0 -0 -0 -0 -0 0 -0 0 -0 0 0 0 0 0 0 0 0 0
-0 -0 -0 -0 -0 -0 -0 -0 -0 0 0 -0 -0 -0 -0 0 0 0 0 0 0 0 0 0 0 0 0 0 0 0 0 -0 -0 0 0 0 0 0 0 0 0 0 0
-0 -0 -0 -0 -0 -0 -0 -0 0 0 0 -0 -0 -0 -0 0 -0 -0 -0 -0 0 0 -0 0 0 0 0 0 0 0 0 -0 0 0 0 0 0 0 0 0 0 0 0
-0 -0 -0 -0 -0 -0 -0 -0 -0 0 0 0 0 0 0 0 0 -0 -0 0 0 0 0 0 0 0 0 0 0 0 0 -0 -0 0 0 0 0 0 0 0 0 0 0
-0 0 -0 -0 -0 -0 -0 -0 -0 0 0 0 0 -0 -0 -0 0 0 0 0 0 0 0 0 0 0 0 0 0 0 0 -0 -0 0 0 0 0 0 0 0 0 0 0
0 -0 -0 -0 -0 -0 -0 -0 -0 -0 -0 0 0 -0 -0 -0 -0 0 0 0 0 0 0 0 0 0 0 0 0 0 0 -0 0 0 0 0 0 0 0 0 0 0 0
-0 0 0 -0 -0 -0 -0 -0 -0 -0 -0 -0 0 -0 -0 0 -0 -0 0 0 0 0 0 0 0 0 0 0 0 0 0 0 0 0 0 0 0 0 0 0 0 0 0
-0 -0 -0 -0 -0 -0 -0 -0 -0 -0 -0 -0 -0 -0 0 0 0 0 0 0 0 0 0 0 0 0 0 0 0 0 0 0 0 0 0 0 0 0 0 0 0 0 0
-0 -0 -0 -0 0 0 0 0 -0 -0 -0 -0 -0 -0 0 0 0 0 0 0 0 0 0 0 0 0 0 0 0 0 0 0 0 0 0 0 0 0 0 0 0 0 0
-0 -0 -0 -0 -0 -0 0 -0 0 0 -0 -0 -0 -0 0 0 0 0 0 0 0 0 0 0 0 0 0 0 0 0 0 0 0 0 0 0 0 0 0 0 0 0 0
-0 0 -0 -0 -0 -0 -0 0 0 -0 -0 -0 -0 -0 -0 0 0 0 0 0 0 0 0 0 0 0 0 0 0 0 0 0 0 0 0 0 0 0 0 0 0 0 0
0 0 0 -0 -0 -0 0 -0 0 0 0 0 0 0 0 0 0 0 0 0 0 0 0 0 0 0 0 0 0 0 0 0 0 0 0 0 0 0 0 0 0 0 0
0 0 0 0 0 0 0 0 0 0 0 0 0 0 0 0 0 0 0 0 0 0 0 0 0 0 0 0 0 0 0 0 0 0 0 0 0 0 0 0 0 0 0
0 0 0 0 0 0 0 0 0 0 0 0 0 0 0 0 0 0 0 0 0 0 0 0 0 0 0 0 0 0 0 0 0 0 0 0 0 0 0 0 0 0 0
0 0 0 0 0 0 0 0 0 0 0 0 0 0 0 0 0 0 0 0 0 0 0 0 0 0 0 0 0 0 0 0 0 0 0 0 0 0 0 0 0 0 0
0 0 0 0 0 0 0 0 0 0 0 0 0 0 0 0 0 0 0 0 0 0 0 0 0 0 0 0 0 0 0 0 0 0 0 0 0 0 0 0 0 0 0
0 0 0 0 0 0 0 0 0 0 0 0 0 0 0 0 0 0 0 0 0 0 0 0 0 0 0 0 0 0 0 0 0 0 0 0 0 0 0 0 0 0 0
0 0 0 0 0 0 0 0 0 0 0 0 0 0 0 0 0 0 0 0 0 0 0 0 0 0 0 0 0 0 0 0 0 0 0 0 0 0 0 0 0 0 0
0 0 0 0 0 0 0 0 0 0 0 0 0 0 0 0 0 0 0 0 0 0 0 0 0 0 0 0 0 0 0 0 0 0 0 0 0 0 0 0 0 0 0
0 0 0 0 0 0 0 0 0 0 0 0 0 0 0 0 0 0 0 0 0 0 0 0 0 0 0 0 0 0 0 0 0 0 0 0 0 0 0 0 0 0 0
0 0 0 0 0 0 0 0 0 0 0 0 0 0 0 0 0 0 0 0 0 0 0 0 0 0 0 0 0 0 0 0 0 0 0 0 0 0 0 0 0 0 0
0 0 0 0 0 0 0 0 0 0 0 0 0 0 0 0 0 0 0 0 0 0 0 0 0 0 0 0 0 0 0 0 0 0 0 0 0 0 0 0 0 0 0
Wind_Speed_500mb
24 27 28 19 17 15 12 12 16 17 19 21 17 12 15 14 16 19 16 12 12 16 12 18 20 22 24 24 25 24 21 28 34 35 37 34 37 31 30 31 26 27 24
29 29 27 19 16 13 10 10 12 14 16 16 17 13 10 10 12 14 12 13 12 18 22 21 23 24 25 24 27 33 36 39 39 41 38 29 30 25 27 28 29 30 28
28 30 26 19 15 12 10 8 10 10 11 14 13 14 11 10 13 10 10 19 18 17 19 21 21 23 25 26 30 32 29 31 44 42 34 16 20 16 19 19 18 17 16
26 28 24 22 11 11 8 8 9 11 11 10 9 14 14 12 15 13 15 19 17 17 18 19 18 21 23 23 27 28 30 33 36 34 24 14 14 15 13 14 13 10 10
27 27 25 20 15 11 7 5 8 14 11 4 4 13 13 12 15 17 16 16 17 14 16 17 19 16 18 20 22 23 24 26 32 23 16 21 9 13 13 14 14 14 13
27 26 23 20 16 10 8 6 3 8 12 10 3 2 11 10 12 15 17 14 15 12 13 12 14 14 15 15 17 19 19 20 26 14 14 13 7 9 11 13 15 16 17
28 24 24 22 16 9 7 6 4 6 8 14 10 4 7 7 10 15 12 13 12 11 10 10 11 12 10 9 10 12 14 15 14 11 13 7 7 6 7 12 15 16 17
27 27 23 22 18 12 7 7 6 6 12 17 13 12 8 8 8 12 14 12 12 12 11 7 10 8 7 6 5 4 7 8 12 7 7 2 6 6 5 6 12 14 14
22 26 24 23 21 17 12 9 8 8 10 14 11 15 14 10 9 13 15 15 14 15 13 9 8 7 6 4 2 1 2 4 11 4 4 4 5 5 4 6 10 12 13
26 21 24 22 20 18 16 13 12 12 10 12 12 17 18 15 11 10 13 13 15 16 14 12 13 12 10 9 8 7 5 4 4 7 6 10 8 8 6 7 7 8 7
28 30 25 26 24 21 17 16 16 17 16 15 16 16 21 17 17 13 11 17 17 17 17 17 18 17 14 14 14 13 12 8 11 9 10 14 13 11 10 9 9 8 7
28 31 31 31 27 25 23 23 19 20 21 20 20 19 17 18 21 19 22 19 20 22 21 22 23 21 20 19 18 18 18 16 18 17 17 18 18 17 15 14 13 11 8
22 26 29 31 33 31 28 24 21 20 21 22 24 24 20 22 26 27 28 26 24 24 25 25 28 27 26 22 22 24 23 25 23 23 24 23 24 23 21 20 18 17 14
24 22 23 27 30 33 33 32 28 25 26 26 27 28 28 28 28 27 26 27 26 25 24 25 27 29 29 30 30 31 32 31 30 29 29 30 29 30 28 26 25 23 21
26 25 24 25 28 29 34 36 34 33 32 30 30 32 32 31 30 29 31 32 32 31 30 30 29 30 31 33 34 36 37 37 37 38 38 39 34 35 34 32 32 31 28
26 26 28 31 30 32 33 35 37 38 35 36 33 35 35 34 34 33 34 35 37 37 35 33 32 31 33 34 37 38 40 41 42 44 44 45 43 41 41 39 37 37 36
26 27 32 34 35 36 38 39 41 42 41 43 41 39 40 38 38 36 36 37 37 36 39 38 38 40 41 40 41 42 43 44 45 47 48 50 50 48 45 46 43 42 41
28 32 33 35 39 43 43 41 42 44 46 47 47 46 46 45 42 42 41 39 37 39 40 41 40 40 41 41 41 42 44 47 47 48 50 51 53 53 53 48 50 49 48
34 29 31 35 37 38 45 43 42 43 44 48 49 50 48 49 46 46 46 42 39 40 42 42 41 42 42 42 42 44 46 50 52 52 55 54 53 55 55 55 52 55 56
34 33 33 35 39 36 37 40 43 46 50 47 50 57 49 49 51 50 49 49 47 45 45 44 45 43 44 42 40 45 52 54 54 56 54 50 54 56 58 58 58 59 59
42 51 50 47 41 41 40 42 45 48 50 52 54 54 55 50 53 54 53 51 51 51 49 48 45 45 47 40 42 50 49 50 54 53 48 46 47 49 54 56 57 59 64
50 51 52 55 50 45 47 44 46 44 50 53 55 57 60 55 52 54 53 53 52 53 50 49 46 47 48 40 42 32 29 31 39 38 33 32 36 37 40 43 41 41 47
45 41 39 44 46 47 46 45 46 47 44 44 49 50 56 59 56 54 54 53 52 53 53 52 50 52 54 48 45 41 17 18 27 30 26 36 36 38 44 50 48 51 55
35 38 39 39 41 44 47 50 53 51 47 40 41 39 41 47 48 46 45 47 46 51 57 54 53 55 56 57 52 55 58 57 37 36 33 20 26 51 49 48 50 53 54
32 37 40 41 45 50 54 55 56 56 47 33 29 32 32 38 30 33 37 40 40 43 46 47 47 51 55 55 55 57 60 61 57 56 47 62 48 43 52 57 59 58 57
26 27 27 25 30 37 39 40 41 36 33 30 29 30 30 26 29 32 36 39 40 41 43 41 40 43 47 51 50 53 56 58 62 60 61 62 55 48 57 59 60 53 58
Wind_Direction_500mb
151 169 157 150 148 143 132 136 144 155 158 154 142 142 132 115 117 160 161 171 177 116 102 94 95 95 88 90 91 97 112 104 99 91 85 77 71 71 75 77 78 67 67
162 166 158 154 149 147 147 152 158 168 173 174 171 176 172 151 136 155 178 173 128 113 108 92 94 87 89 90 87 97 103 97 90 82 74 61 74 82 80 76 75 77 82
164 162 157 154 148 152 162 168 156 158 177 188 183 188 188 186 171 180 169 133 130 114 103 99 96 89 87 87 88 94 95 97 87 81 77 65 64 77 69 61 64 63 61
158 160 166 158 156 150 154 151 140 135 139 130 153 166 161 157 179 174 167 145 134 116 114 98 97 96 92 90 89 88 88 93 89 79 83 86 55 46 40 36 39 30 26
156 161 174 163 153 148 131 121 151 153 169 87 103 143 149 150 147 160 163 148 143 138 117 110 106 101 100 94 88 87 87 86 76 68 81 103 34 54 34 30 41 42 32
156 171 177 173 171 153 121 122 139 182 184 151 156 46 155 156 150 157 163 158 156 157 136 124 106 103 112 101 93 86 82 81 73 78 80 64 106 83 20 32 29 34 36
162 180 180 180 179 179 151 161 167 186 160 164 188 242 180 156 174 168 165 175 176 175 173 153 124 115 114 110 101 84 78 76 89 82 83 102 76 80 65 9 21 30 37
177 181 191 190 192 195 204 195 201 208 189 187 199 197 231 225 180 199 186 192 194 205 205 194 161 143 130 128 126 86 72 70 61 47 73 3 41 63 74 6 3 21 30
189 188 195 200 202 205 209 216 224 220 223 225 227 191 215 232 200 203 202 203 211 216 223 218 207 197 199 195 219 326 22 55 96 313 38 330 354 4 20 350 356 10 24
189 193 198 210 214 217 220 222 223 225 237 246 249 202 213 232 233 204 220 236 225 223 233 234 235 237 241 247 260 274 292 329 34 306 314 288 312 319 327 330 344 352 14
207 193 201 212 217 214 228 231 228 235 234 238 246 248 232 234 271 236 233 231 247 245 242 247 246 249 253 259 267 276 281 289 271 272 267 287 291 294 300 301 307 319 329
214 216 214 207 219 221 223 240 232 238 241 244 246 248 242 227 222 222 245 244 243 249 252 252 252 253 254 262 274 266 270 265 272 269 266 282 283 282 283 282 284 289 290
222 230 228 229 224 219 226 225 238 226 236 239 243 244 246 231 242 241 250 251 251 250 254 255 253 253 253 247 248 261 265 267 270 270 272 280 278 276 275 276 274 276 277
213 230 233 235 236 234 229 237 233 229 239 237 241 246 247 247 246 249 244 248 254 248 253 242 253 252 254 258 259 261 263 267 270 270 272 279 276 276 273 271 270 268 268
217 221 239 237 237 238 240 243 243 241 243 244 245 247 247 252 252 252 249 248 249 251 249 247 253 256 260 262 265 267 269 272 273 272 274 276 274 273 271 269 268 267 264
227 230 225 247 244 240 239 244 249 250 242 246 239 243 248 248 252 253 252 253 252 253 255 255 253 259 263 266 269 271 272 273 274 275 276 277 278 273 271 268 266 266 266
239 236 231 234 253 250 246 246 245 251 251 252 251 245 248 248 248 252 252 254 256 256 256 257 261 263 265 269 272 274 275 276 274 274 276 278 280 280 273 272 269 267 267
244 242 240 237 245 252 254 252 251 248 249 255 254 253 256 254 251 250 252 253 254 255 257 256 261 264 268 268 271 276 279 281 279 280 279 280 282 282 281 275 273 271 268
242 234 237 241 249 248 243 242 241 249 250 254 257 255 249 254 255 252 252 253 253 255 257 258 259 262 265 270 278 280 278 278 281 283 282 284 284 281 280 279 273 270 268
233 239 248 244 249 252 244 242 239 242 249 245 249 258 253 250 255 256 254 253 253 254 257 260 263 264 268 270 268 272 279 283 283 282 284 284 283 280 278 276 274 271 267
248 249 252 255 244 246 244 240 245 247 251 251 248 249 259 249 247 252 257 256 255 258 260 262 263 266 268 268 277 281 288 289 290 287 284 283 283 281 280 280 280 274 272
253 255 256 254 246 242 246 245 248 249 259 260 250 248 254 256 247 248 253 257 258 262 264 262 260 262 267 262 259 274 288 296 288 289 288 280 285 282 285 289 292 291 279
253 254 253 251 249 247 248 248 247 251 253 261 263 258 248 248 247 245 247 252 255 260 263 266 266 264 268 269 267 255 274 259 292 302 305 299 290 282 283 285 287 288 285
246 244 249 255 252 249 246 245 245 247 252 256 258 258 254 254 248 248 251 252 254 255 262 263 263 263 265 266 261 259 268 271 278 286 275 277 276 289 292 290 294 290 287
251 253 253 250 247 243 243 244 247 249 243 247 248 247 244 252 247 244 245 244 248 253 258 264 263 257 259 263 266 267 270 274 275 270 275 288 291 272 280 289 292 294 292
248 241 239 240 239 244 246 245 240 236 243 238 241 242 252 248 254 246 245 246 248 251 255 255 258 259 262 265 263 263 263 265 271 272 272 276 279 285 288 286 285 289 292
Wind_Speed_850mb
24 27 28 19 17 15 12 12 16 17 19 21 17 12 15 14 16 19 16 12 12 16 12 18 20 22 24 24 25 24 21 28 34 35 37 34 37 31 30 31 26 27 24
29 29 27 19 16 13 10 10 12 14 16 16 17 13 10 10 12 14 12 13 12 18 22 21 23 24 25 24 27 33 36 39 39 41 38 29 30 25 27 28 29 30 28
28 30 26 19 15 12 10 8 10 10 11 14 13 14 11 10 13 10 10 19 18 17 19 21 21 23 25 26 30 32 29 31 44 42 34 16 20 16 19 19 18 17 16
26 28 24 22 11 11 8 8 9 11 11 10 9 14 14 12 15 13 15 19 17 17 18 19 18 21 23 23 27 28 30 33 36 34 24 14 14 15 13 14 13 10 10
27 27 25 20 15 11 7 5 8 14 11 4 4 13 13 12 15 17 16 16 17 14 16 17 19 16 18 20 22 23 24 26 32 23 16 21 9 13 13 14 14 14 13
27 26 23 20 16 10 8 6 3 8 12 10 3 2 11 10 12 15 17 14 15 12 13 12 14 14 15 15 17 19 19 20 26 14 14 13 7 9 11 13 15 16 17
28 24 24 22 16 9 7 6 4 6 8 14 10 4 7 7 10 15 12 13 12 11 10 10 11 12 10 9 10 12 14 15 14 11 13 7 7 6 7 12 15 16 17
27 27 23 22 18 12 7 7 6 6 12 17 13 12 8 8 8 12 14 12 12 12 11 7 10 8 7 6 5 4 7 8 12 7 7 2 6 6 5 6 12 14 14
22 26 24 23 21 17 12 9 8 8 10 14 11 15 14 10 9 13 15 15 14 15 13 9 8 7 6 4 2 1 2 4 11 4 4 4 5 5 4 6 10 12 13
26 21 24 22 20 18 16 13 12 12 10 12 12 17 18 15 11 10 13 13 15 16 14 12 13 12 10 9 8 7 5 4 4 7 6 10 8 8 6 7 7 8 7
28 30 25 26 24 21 17 16 16 17 16 15 16 16 21 17 17 13 11 17 17 17 17 17 18 17 14 14 14 13 12 8 11 9 10 14 13 11 10 9 9 8 7
28 31 31 31 27 25 23 23 19 20 21 20 20 19 17 18 21 19 22 19 20 22 21 22 23 21 20 19 18 18 18 16 18 17 17 18 18 17 15 14 13 11 8
22 26 29 31 33 31 28 24 21 20 21 22 24 24 20 22 26 27 28 26 24 24 25 25 28 27 26 22 22 24 23 25 23 23 24 23 24 23 21 20 18 17 14
24 22 23 27 30 33 33 32 28 25 26 26 27 28 28 28 28 27 26 27 26 25 24 25 27 29 29 30 30 31 32 31 30 29 29 30 29 30 28 26 25 23 21
26 25 24 25 28 29 34 36 34 33 32 30 30 32 32 31 30 29 31 32 32 31 30 30 29 30 31 33 34 36 37 37 37 38 38 39 34 35 34 32 32 31 28
26 26 28 31 30 32 33 35 37 38 35 36 33 35 35 34 34 33 34 35 37 37 35 33 32 31 33 34 37 38 40 41 42 44 44 45 43 41 41 39 37 37 36
26 27 32 34 35 36 38 39 41 42 41 43 41 39 40 38 38 36 36 37 37 36 39 38 38 40 41 40 41 42 43 44 45 47 48 50 50 48 45 46 43 42 41
28 32 33 35 39 43 43 41 42 44 46 47 47 46 46 45 42 42 41 39 37 39 40 41 40 40 41 41 41 42 44 47 47 48 50 51 53 53 53 48 50 49 48
34 29 31 35 37 38 45 43 42 43 44 48 49 50 48 49 46 46 46 42 39 40 42 42 41 42 42 42 42 44 46 50 52 52 55 54 53 55 55 55 52 55 56
34 33 33 35 39 36 37 40 43 46 50 47 50 57 49 49 51 50 49 49 47 45 45 44 45 43 44 42 40 45 52 54 54 56 54 50 54 56 58 58 58 59 59
42 51 50 47 41 41 40 42 45 48 50 52 54 54 55 50 53 54 53 51 51 51 49 48 45 45 47 40 42 50 49 50 54 53 48 46 47 49 54 56 57 59 64
50 51 52 55 50 45 47 44 46 44 50 53 55 57 60 55 52 54 53 53 52 53 50 49 46 47 48 40 42 32 29 31 39 38 33 32 36 37 40 43 41 41 47
45 41 39 44 46 47 46 45 46 47 44 44 49 50 56 59 56 54 54 53 52 53 53 52 50 52 54 48 45 41 17 18 27 30 26 36 36 38 44 50 48 51 55
35 38 39 39 41 44 47 50 53 51 47 40 41 39 41 47 48 46 45 47 46 51 57 54 53 55 56 57 52 55 58 57 37 36 33 20 26 51 49 48 50 53 54
32 37 40 41 45 50 54 55 56 56 47 33 29 32 32 38 30 33 37 40 40 43 46 47 47 51 55 55 55 57 60 61 57 56 47 62 48 43 52 57 59 58 57
26 27 27 25 30 37 39 40 41 36 33 30 29 30 30 26 29 32 36 39 40 41 43 41 40 43 47 51 50 53 56 58 62 60 61 62 55 48 57 59 60 53 58
Wind_Direction_850mb
151 169 157 150 148 143 132 136 144 155 158 154 142 142 132 115 117 160 161 171 177 116 102 94 95 95 88 90 91 97 112 104 99 91 85 77 71 71 75 77 78 67 67
162 166 158 154 149 147 147 152 158 168 173 174 171 176 172 151 136 155 178 173 128 113 108 92 94 87 89 90 87 97 103 97 90 82 74 61 74 82 80 76 75 77 82
164 162 157 154 148 152 162 168 156 158 177 188 183 188 188 186 171 180 169 133 130 114 103 99 96 89 87 87 88 94 95 97 87 81 77 65 64 77 69 61 64 63 61
158 160 166 158 156 150 154 151 140 135 139 130 153 166 161 157 179 174 167 145 134 116 114 98 97 96 92 90 89 88 88 93 89 79 83 86 55 46 40 36 39 30 26
156 161 174 163 153 148 131 121 151 153 169 87 103 143 149 150 147 160 163 148 143 138 117 110 106 101 100 94 88 87 87 86 76 68 81 103 34 54 34 30 41 42 32
156 171 177 173 171 153 121 122 139 182 184 151 156 46 155 156 150 157 163 158 156 157 136 124 106 103 112 101 93 86 82 81 73 78 80 64 106 83 20 32 29 34 36
162 180 180 180 179 179 151 161 167 186 160 164 188 242 180 156 174 168 165 175 176 175 173 153 124 115 114 110 101 84 78 76 89 82 83 102 76 80 65 9 21 30 37
177 181 191 190 192 195 204 195 201 208 189 187 199 197 231 225 180 199 186 192 194 205 205 194 161 143 130 128 126 86 72 70 61 47 73 3 41 63 74 6 3 21 30
189 188 195 200 202 205 209 216 224 220 223 225 227 191 215 232 200 203 202 203 211 216 223 218 207 197 199 195 219 326 22 55 96 313 38 330 354 4 20 350 356 10 24
189 193 198 210 214 217 220 222 223 225 237 246 249 202 213 232 233 204 220 236 225 223 233 234 235 237 241 247 260 274 292 329 34 306 314 288 312 319 327 330 344 352 14
207 193 201 212 217 214 228 231 228 235 234 238 246 248 232 234 271 236 233 231 247 245 242 247 246 249 253 259 267 276 281 289 271 272 267 287 291 294 300 301 307 319 329
214 216 214 207 219 221 223 240 232 238 241 244 246 248 242 227 222 222 245 244 243 249 252 252 252 253 254 262 274 266 270 265 272 269 266 282 283 282 283 282 284 289 290
222 230 228 229 224 219 226 225 238 226 236 239 243 244 246 231 242 241 250 251 251 250 254 255 253 253 253 247 248 261 265 267 270 270 272 280 278 276 275 276 274 276 277
213 230 233 235 236 234 229 237 233 229 239 237 241 246 247 247 246 249 244 248 254 248 253 242 253 252 254 258 259 261 263 267 270 270 272 279 276 276 273 271 270 268 268
217 221 239 237 237 238 240 243 243 241 243 244 245 247 247 252 252 252 249 248 249 251 249 247 253 256 260 262 265 267 269 272 273 272 274 276 274 273 271 269 268 267 264
227 230 225 247 244 240 239 244 249 250 242 246 239 243 248 248 252 253 252 253 252 253 255 255 253 259 263 266 269 271 272 273 274 275 276 277 278 273 271 268 266 266 266
239 236 231 234 253 250 246 246 245 251 251 252 251 245 248 248 248 252 252 254 256 256 256 257 261 263 265 269 272 274 275 276 274 274 276 278 280 280 273 272 269 267 267
244 242 240 237 245 252 254 252 251 248 249 255 254 253 256 254 251 250 252 253 254 255 257 256 261 264 268 268 271 276 279 281 279 280 279 280 282 282 281 275 273 271 268
242 234 237 241 249 248 243 242 241 249 250 254 257 255 249 254 255 252 252 253 253 255 257 258 259 262 265 270 278 280 278 278 281 283 282 284 284 281 280 279 273 270 268
233 239 248 244 249 252 244 242 239 242 249 245 249 258 253 250 255 256 254 253 253 254 257 260 263 264 268 270 268 272 279 283 283 282 284 284 283 280 278 276 274 271 267
248 249 252 255 244 246 244 240 245 247 251 251 248 249 259 249 247 252 257 256 255 258 260 262 263 266 268 268 277 281 288 289 290 287 284 283 283 281 280 280 280 274 272
253 255 256 254 246 242 246 245 248 249 259 260 250 248 254 256 247 248 253 257 258 262 264 262 260 262 267 262 259 274 288 296 288 289 288 280 285 282 285 289 292 291 279
253 254 253 251 249 247 248 248 247 251 253 261 263 258 248 248 247 245 247 252 255 260 263 266 266 264 268 269 267 255 274 259 292 302 305 299 290 282 283 285 287 288 285
246 244 249 255 252 249 246 245 245 247 252 256 258 258 254 254 248 248 251 252 254 255 262 263 263 263 265 266 261 259 268 271 278 286 275 277 276 289 292 290 294 290 287
251 253 253 250 247 243 243 244 247 249 243 247 248 247 244 252 247 244 245 244 248 253 258 264 263 257 259 263 266 267 270 274 275 270 275 288 291 272 280 289 292 294 292
248 241 239 240 239 244 246 245 240 236 243 238 241 242 252 248 254 246 245 246 248 251 255 255 258 259 262 265 263 263 263 265 271 272 272 276 279 285 288 286 285 289 292